Orbital Elements at Epoch 2459000.5 (2020-May-31.0) TDB
Reference: JPL 16 (heliocentric ecliptic J2000)
Element | Value | Uncertainty (1-sigma) | Units |
e | .09510004765805663 | 5.6842e-08 | |
a | 2.891258773157151 | 3.043e-08 | au |
q | 2.616299926038132 | 1.6654e-07 | au |
i | 2.716814088502862 | 5.5396e-06 | deg |
node | 47.84237357873668 | 0.00014487 | deg |
peri | 294.3944795600514 | 0.00014832 | deg |
M | 180.7701439884848 | 3.1775e-05 | deg |
tp | 2459894.498370864325 (2022-Nov-10.99837086) | 0.00016084 | TDB |
period | 1795.679696860769 4.92 | 2.8349e-05 7.762e-08 | d yr |
n | .2004811886158521 | 3.1651e-09 | deg/d |
Q | 3.16621762027617 | 3.3324e-08 | au |
|
| | Orbit Determination Parameters
Additional Information
|